"Pseudo-MPEC" for P10SBxr

Created 2019 Oct 11 14:07:18 UT using Find_Orb

Click here for an explanation of pseudo-MPECs

 
 Astrometry: 
     P10SBxr  C2019 10 07t]Nl.B8QTo1k9s]n5xch,ZY40Astrometry]#f2;:$#tG;%!0jWUF51
     P10SBxr  C2019 10 08**lR@jn)2T=li(OFnaab@?7gZpBEaSTE8Gw2kFo$3pCoyDc;_%5$F51
     P10SBxr  C2019 10 08V93R^N+lsw9J/_J%c%l3afF$[,)p0LIg$aodThaGlK,qPIvB\x)#F51
     P10SBxr  C2019 10 08Ea8Qj/;D5?1n2ZHs(oD4fN8bpt:SQ_:jj_S`)h%o6+OH@xvm@j3IF51
     P10SBxr  C2019 10 08(usWiM.)ARsZ+3redacted;dN83dxbgr:cta]dt,clickmo$9-2BF51
     P10SBxr ^C2019 10 09Ne;cJ)Mxu:=s*k=m?XP*S]Q=U;JA]R,S;1\B/W\+90P0here#ph.695
     P10SBxr ^C2019 10 09AE+Db`9f'whP4yfVbwmfori(,SYp1O^?)4$ZN=F/:QDR*0cm.06j695
     P10SBxr ^C2019 10 09piIfTRJs[*kI.explanationKwqatj8svC)_jkI6?I9+$lVQM`CQ695

Station data:
(695) Kitt Peak  (N31.958398 W111.594670)  US/Arizona.
(F51) Pan-STARRS 1, Haleakala  (N20.707235 W156.255910)  US/Hawaii.
   Observers N. Primak, A. Schultz, S. Watters, J. Thiel, T. Goggia. Measurer
   PS1 Science Consortium. 1.8-m Ritchey-Chrétien + CCD.

Orbital elements:  P10SBxr
   Perihelion 2020 Dec 15.472247 +/- 109 TT = 11:20:02 (JD 2459198.972247)
Epoch 2019 Oct  9.0 TT = JDT 2458765.5   Earth MOID: 0.6912   Ma: 0.0345
M 189.32291993 +/- 36               (J2000 ecliptic)          AutoNEOCP
n   0.39374396 +/- 0.022            Peri.  189.90788 +/- 29
a   1.84357203 +/- 0.0686           Node   359.60325 +/- 2.1
e   0.0852116 +/- 0.00744           Incl.   24.20273 +/- 3.5
P   2.50/914.28d           H 20.4   G  0.15   U 10.2  
q 1.68647820 +/- 0.0609    Q 2.00066585 +/- 0.074
From 8 observations 2019 Oct. 7-9 (43.0 hr); mean residual 0".07
Residuals in arcseconds: 
191007 F51  .00   .01+    191008 F51  .16+  .04-    191009 695  .00   .10+    
191008 F51  .05+  .03+    191008 F51  .10-  .03-    191009 695  .03-  .10-    
191008 F51  .12-  .01+    191009 695  .04+  .02+    

Ephemerides (geocentric):
Date (UTC) HH   RA              Dec         delta   r     elong  mag " sig PA
---- -- -- --  -------------   -----------  ------ ------ -----  --- ---- ---
2019 10 11 14  00 33 45.460   +19 54 57.93  1.0175 1.9985 164.9 22.5 5.62  59
2019 10 11 15  00 33 40.839   +19 55 09.24  1.0176 1.9985 164.9 22.5 5.76  59
2019 10 11 16  00 33 36.218   +19 55 20.53  1.0176 1.9985 164.9 22.5 5.91  59
2019 10 11 17  00 33 31.599   +19 55 31.78  1.0177 1.9985 164.9 22.5 6.07  59
2019 10 11 18  00 33 26.981   +19 55 43.01  1.0177 1.9985 164.9 22.5 6.22  58
2019 10 11 19  00 33 22.364   +19 55 54.21  1.0178 1.9985 164.9 22.5 6.37  58
2019 10 11 20  00 33 17.748   +19 56 05.38  1.0178 1.9985 164.8 22.5 6.53  58
2019 10 11 21  00 33 13.133   +19 56 16.52  1.0179 1.9984 164.8 22.5 6.68  58
2019 10 11 22  00 33 08.520   +19 56 27.64  1.0179 1.9984 164.8 22.5 6.84  58
2019 10 11 23  00 33 03.907   +19 56 38.72  1.0180 1.9984 164.8 22.5 7.00  58
2019 10 12 00  00 32 59.296   +19 56 49.78  1.0180 1.9984 164.8 22.5 7.16  58
2019 10 12 01  00 32 54.686   +19 57 00.81  1.0181 1.9984 164.7 22.5 7.33  58
2019 10 12 02  00 32 50.078   +19 57 11.81  1.0181 1.9984 164.7 22.5 7.49  57
2019 10 12 03  00 32 45.471   +19 57 22.78  1.0182 1.9984 164.7 22.5 7.66  57
2019 10 12 04  00 32 40.864   +19 57 33.73  1.0182 1.9984 164.7 22.5 7.82  57
2019 10 12 05  00 32 36.260   +19 57 44.64  1.0183 1.9984 164.7 22.5 7.99  57
2019 10 12 06  00 32 31.656   +19 57 55.53  1.0183 1.9984 164.6 22.5 8.16  57
2019 10 12 07  00 32 27.054   +19 58 06.39  1.0184 1.9984 164.6 22.5 8.33  57
2019 10 12 08  00 32 22.453   +19 58 17.22  1.0184 1.9984 164.6 22.5 8.51  57
2019 10 12 09  00 32 17.853   +19 58 28.02  1.0185 1.9984 164.6 22.5 8.68  57
2019 10 12 10  00 32 13.255   +19 58 38.80  1.0185 1.9984 164.6 22.5 8.86  57
2019 10 12 11  00 32 08.658   +19 58 49.55  1.0186 1.9984 164.5 22.5 9.03  57
2019 10 12 12  00 32 04.063   +19 59 00.26  1.0186 1.9983 164.5 22.5 9.21  56
2019 10 12 13  00 31 59.468   +19 59 10.95  1.0187 1.9983 164.5 22.5 9.39  56
2019 10 12 14  00 31 54.875   +19 59 21.62  1.0188 1.9983 164.5 22.5 9.57  56
2019 10 12 15  00 31 50.284   +19 59 32.25  1.0188 1.9983 164.5 22.5 9.75  56
2019 10 12 16  00 31 45.694   +19 59 42.86  1.0189 1.9983 164.4 22.5 9.94  56
2019 10 12 17  00 31 41.105   +19 59 53.44  1.0189 1.9983 164.4 22.5 10.1  56
2019 10 12 18  00 31 36.518   +20 00 03.99  1.0190 1.9983 164.4 22.5 10.3  56
2019 10 12 19  00 31 31.932   +20 00 14.51  1.0191 1.9983 164.4 22.5 10.5  56
2019 10 12 20  00 31 27.347   +20 00 25.01  1.0191 1.9983 164.3 22.5 10.7  56
2019 10 12 21  00 31 22.764   +20 00 35.47  1.0192 1.9983 164.3 22.5 10.9  55
2019 10 12 22  00 31 18.183   +20 00 45.91  1.0192 1.9983 164.3 22.5 11.1  55
2019 10 12 23  00 31 13.603   +20 00 56.32  1.0193 1.9983 164.3 22.5 11.3  55
2019 10 13 00  00 31 09.024   +20 01 06.71  1.0194 1.9983 164.2 22.5 11.5  55
2019 10 13 01  00 31 04.447   +20 01 17.06  1.0194 1.9983 164.2 22.5 11.6  55
2019 10 13 02  00 30 59.871   +20 01 27.39  1.0195 1.9982 164.2 22.5 11.8  55
2019 10 13 03  00 30 55.297   +20 01 37.69  1.0195 1.9982 164.2 22.5 12.0  55
2019 10 13 04  00 30 50.724   +20 01 47.96  1.0196 1.9982 164.2 22.5 12.2  55
2019 10 13 05  00 30 46.153   +20 01 58.21  1.0197 1.9982 164.1 22.5 12.4  55
2019 10 13 06  00 30 41.583   +20 02 08.42  1.0197 1.9982 164.1 22.5 12.6  55
2019 10 13 07  00 30 37.015   +20 02 18.61  1.0198 1.9982 164.1 22.5 12.8  54
2019 10 13 08  00 30 32.449   +20 02 28.77  1.0199 1.9982 164.1 22.5 13.0  54
2019 10 13 09  00 30 27.884   +20 02 38.91  1.0199 1.9982 164.0 22.5 13.3  54
2019 10 13 10  00 30 23.320   +20 02 49.01  1.0200 1.9982 164.0 22.5 13.5  54
2019 10 13 11  00 30 18.759   +20 02 59.09  1.0201 1.9982 164.0 22.5 13.7  54
2019 10 13 12  00 30 14.198   +20 03 09.14  1.0201 1.9982 164.0 22.5 13.9  54
2019 10 13 13  00 30 09.640   +20 03 19.17  1.0202 1.9982 163.9 22.5 14.1  54